weather.gov     
National Weather Service

Terminal Aerodrome Forecast
NWS Homepage
This page is being discontinued on March 12, 2014.
The same data is available at this site. Please update your bookmarks.
Thank you, and we apologize for the inconvenience.
Please send an email to SR-SRH.Webmaster@noaa.gov with any concerns.


Current Version
Previous Version:    01  02  03  04  05  06  07  08  09  10  11  12  13  14  15  16  17  18  19  20  21  22  23  24  25  26  27  
[Printable]
474
FTUS44 KLZK 011100
TAFBPK
TAF
KBPK 011120Z 0112/0212 16008KT P6SM VCTS SCT025 BKN040CB
      TEMPO 0112/0114 VRB15G30KT 3SM -TSRA BR OVC025CB
     FM011400 19012G20KT P6SM SCT025 SCT060
     FM020000 16009KT P6SM SCT040 SCT100
     FM020200 16008KT P6SM VCTS SCT040CB BKN100=


U.S. Dept. of Commerce
NOAA National Weather Service
1325 East West Highway
Silver Spring, MD 20910
E-mail: w-nws.webmaster@noaa.gov
Page last modified: May 16, 2007
NATIONAL WEATHER SERVICE: for Safety, for Work, for Fun - FOR LIFE